最新 今天 统计 地图 地球 设置 关于

今天收到的 9A3XK 415 APRS数据包 下载轨迹 aprs.fi hamclub hellocq 本站 本站轨迹

时间msgraw packet
2021-04-14 16:22:529A3XK>APMI06,TCPIP*,qAC,APRSFI-I1:T#199,038,040,000,02993,062,00000000
2021-04-14 16:22:189A3XK>BEACON,WIDE1-1,qAR,E79XZA-10:Power 9W Gain 3dB Height 240m Ant omni
2021-04-14 16:22:089A3XK>BEACON,WIDE1-1,qAR,E79XZA-10:CRLNet.108 - SysOp 9a3XK & 9a7kxp-Internet via DJWIRELES http://djw.hr/
2021-04-14 16:19:539A3XK>APMI06,WIDE1-1,qAR,E79XZA-10:T#198,051,042,001,02994,062,00000000
2021-04-14 16:17:529A3XK>APMI06,TCPIP*,qAC,APRSFI-I1:T#197,050,043,002,02994,062,00000000
2021-04-14 16:12:529A3XK>APMI06,TCPIP*,qAC,APRSFI-I1:T#196,070,044,003,02996,062,00000000
2021-04-14 16:12:179A3XK>BEACON,TCPIP*,qAC,APRSFI-I1:Power 9W Gain 3dB Height 240m Ant omni
2021-04-14 16:12:029A3XK>APMI06,TCPIP*,qAC,APRSFI-I1:>http://crlnet.it - WX3IN1 Plus 2.0 - v1.13 - 11.6C - 12.1V
2021-04-14 16:11:57!4522.10N/01814.60EIiGate&W2 DJAKOVO CRLNet.108 http://elco.hr9A3XK>APMI06,TCPIP*,qAC,APRSFI-I1:!4522.10N/01814.60EIiGate&W2 DJAKOVO CRLNet.108 http://elco.hr
2021-04-14 16:07:529A3XK>APMI06,TCPIP*,qAC,APRSFI-I1:T#195,070,045,002,02994,062,00000000
2021-04-14 16:05:58!4522.10N/01814.60EIiGate&W2 DJAKOVO CRLNet.108 http://elco.hr9A3XK>APMI06,WIDE2-2,qAR,E79XZA-10:!4522.10N/01814.60EIiGate&W2 DJAKOVO CRLNet.108 http://elco.hr
2021-04-14 16:02:529A3XK>APMI06,TCPIP*,qAC,APRSFI-I1:T#194,053,045,001,02992,062,00000000
2021-04-14 15:57:529A3XK>APMI06,TCPIP*,qAC,APRSFI-I1:T#193,061,045,002,02992,062,00000000
2021-04-14 15:52:529A3XK>APMI06,TCPIP*,qAC,APRSFI-I1:T#192,068,046,001,02994,062,00000000
2021-04-14 15:50:539A3XK>APMI06,WIDE1-1,qAR,E79XZA-10:T#191,078,047,002,02992,062,00000000
2021-04-14 15:47:529A3XK>APMI06,TCPIP*,qAC,APRSFI-I1:T#190,071,047,002,02992,062,00000000
2021-04-14 15:44:58!4522.10N/01814.60EIiGate&W2 DJAKOVO CRLNet.108 http://elco.hr9A3XK>APMI06,WIDE2-2,qAR,E79XZA-10:!4522.10N/01814.60EIiGate&W2 DJAKOVO CRLNet.108 http://elco.hr
2021-04-14 15:42:529A3XK>APMI06,TCPIP*,qAC,APRSFI-I1:T#189,077,045,003,02995,062,00000000
2021-04-14 15:42:179A3XK>BEACON,TCPIP*,qAC,APRSFI-I1:Power 9W Gain 3dB Height 240m Ant omni
2021-04-14 15:42:029A3XK>APMI06,TCPIP*,qAC,APRSFI-I1:>http://crlnet.it - WX3IN1 Plus 2.0 - v1.13 - 12.0C - 12.1V
2021-04-14 15:41:57!4522.10N/01814.60EIiGate&W2 DJAKOVO CRLNet.108 http://elco.hr9A3XK>APMI06,TCPIP*,qAC,APRSFI-I1:!4522.10N/01814.60EIiGate&W2 DJAKOVO CRLNet.108 http://elco.hr
2021-04-14 15:37:529A3XK>APMI06,TCPIP*,qAC,APRSFI-I1:T#188,079,044,002,02993,062,00000000
2021-04-14 15:32:529A3XK>APMI06,TCPIP*,qAC,APRSFI-I1:T#187,060,041,001,02991,062,00000000
2021-04-14 15:32:189A3XK>BEACON,WIDE1-1,qAR,E79XZA-10:Power 9W Gain 3dB Height 240m Ant omni
2021-04-14 15:32:089A3XK>BEACON,WIDE1-1,qAR,E79XZA-10:CRLNet.108 - SysOp 9a3XK & 9a7kxp-Internet via DJWIRELES http://djw.hr/
2021-04-14 15:27:529A3XK>APMI06,TCPIP*,qAC,APRSFI-I1:T#186,072,040,002,02992,062,00000000
2021-04-14 15:23:58!4522.10N/01814.60EIiGate&W2 DJAKOVO CRLNet.108 http://elco.hr9A3XK>APMI06,WIDE2-2,qAR,E79XZA-10:!4522.10N/01814.60EIiGate&W2 DJAKOVO CRLNet.108 http://elco.hr
2021-04-14 15:22:529A3XK>APMI06,TCPIP*,qAC,APRSFI-I1:T#185,068,040,001,02994,062,00000000
2021-04-14 15:21:539A3XK>APMI06,WIDE1-1,qAR,E79XZA-10:T#184,071,040,002,02992,062,00000000
2021-04-14 15:17:529A3XK>APMI06,TCPIP*,qAC,APRSFI-I1:T#183,070,039,002,02992,062,00000000
2021-04-14 15:12:529A3XK>APMI06,TCPIP*,qAC,APRSFI-I1:T#182,074,037,002,02995,062,00000000
2021-04-14 15:12:179A3XK>BEACON,TCPIP*,qAC,APRSFI-I1:Power 9W Gain 3dB Height 240m Ant omni
2021-04-14 15:12:029A3XK>APMI06,TCPIP*,qAC,APRSFI-I1:>http://crlnet.it - WX3IN1 Plus 2.0 - v1.13 - 12.2C - 12.1V
2021-04-14 15:11:57!4522.10N/01814.60EIiGate&W2 DJAKOVO CRLNet.108 http://elco.hr9A3XK>APMI06,TCPIP*,qAC,APRSFI-I1:!4522.10N/01814.60EIiGate&W2 DJAKOVO CRLNet.108 http://elco.hr
2021-04-14 15:07:529A3XK>APMI06,TCPIP*,qAC,APRSFI-I1:T#181,068,035,001,02993,062,00000000
2021-04-14 15:02:58!4522.10N/01814.60EIiGate&W2 DJAKOVO CRLNet.108 http://elco.hr9A3XK>APMI06,WIDE2-2,qAR,E79XZA-10:!4522.10N/01814.60EIiGate&W2 DJAKOVO CRLNet.108 http://elco.hr
2021-04-14 15:02:529A3XK>APMI06,TCPIP*,qAC,APRSFI-I1:T#180,063,034,001,02994,062,00000000
2021-04-14 14:57:529A3XK>APMI06,TCPIP*,qAC,APRSFI-I1:T#179,072,034,002,02994,062,00000000
2021-04-14 14:52:539A3XK>APMI06,WIDE1-1,qAR,E79XZA-10:T#177,057,033,001,02996,062,00000000
2021-04-14 14:52:529A3XK>APMI06,TCPIP*,qAC,APRSFI-I1:T#178,057,033,001,02996,062,00000000
2021-04-14 14:47:529A3XK>APMI06,TCPIP*,qAC,APRSFI-I1:T#176,046,032,002,02995,062,00000000
2021-04-14 14:42:529A3XK>APMI06,TCPIP*,qAC,APRSFI-I1:T#175,041,032,002,02996,062,00000000
2021-04-14 14:42:179A3XK>BEACON,TCPIP*,qAC,APRSFI-I1:Power 9W Gain 3dB Height 240m Ant omni
2021-04-14 14:42:089A3XK>BEACON,WIDE1-1,qAR,E79XZA-10:CRLNet.108 - SysOp 9a3XK & 9a7kxp-Internet via DJWIRELES http://djw.hr/
2021-04-14 14:42:029A3XK>APMI06,TCPIP*,qAC,APRSFI-I1:>http://crlnet.it - WX3IN1 Plus 2.0 - v1.13 - 10.8C - 12.1V
2021-04-14 14:41:57!4522.10N/01814.60EIiGate&W2 DJAKOVO CRLNet.108 http://elco.hr9A3XK>APMI06,TCPIP*,qAC,APRSFI-I1:!4522.10N/01814.60EIiGate&W2 DJAKOVO CRLNet.108 http://elco.hr
2021-04-14 14:37:529A3XK>APMI06,TCPIP*,qAC,APRSFI-I1:T#174,049,033,002,02994,062,00000000
2021-04-14 14:32:529A3XK>APMI06,TCPIP*,qAC,APRSFI-I1:T#173,063,035,001,02993,062,00000000
2021-04-14 14:27:529A3XK>APMI06,TCPIP*,qAC,APRSFI-I1:T#172,056,034,002,02993,062,00000000
2021-04-14 14:23:539A3XK>APMI06,WIDE1-1,qAR,E79XZA-10:T#171,034,033,002,02995,062,00000000
2021-04-14 14:22:529A3XK>APMI06,TCPIP*,qAC,APRSFI-I1:T#170,038,033,001,02996,062,00000000
2021-04-14 14:20:58!4522.10N/01814.60EIiGate&W2 DJAKOVO CRLNet.108 http://elco.hr9A3XK>APMI06,WIDE2-2,qAR,E79XZA-10:!4522.10N/01814.60EIiGate&W2 DJAKOVO CRLNet.108 http://elco.hr
2021-04-14 14:17:529A3XK>APMI06,TCPIP*,qAC,APRSFI-I1:T#169,038,033,002,02993,062,00000000
2021-04-14 14:12:529A3XK>APMI06,TCPIP*,qAC,APRSFI-I1:T#168,047,033,003,02994,062,00000000
2021-04-14 14:12:179A3XK>BEACON,TCPIP*,qAC,APRSFI-I1:Power 9W Gain 3dB Height 240m Ant omni
2021-04-14 14:12:029A3XK>APMI06,TCPIP*,qAC,APRSFI-I1:>http://crlnet.it - WX3IN1 Plus 2.0 - v1.13 - 11.5C - 12.1V
2021-04-14 14:11:57!4522.10N/01814.60EIiGate&W2 DJAKOVO CRLNet.108 http://elco.hr9A3XK>APMI06,TCPIP*,qAC,APRSFI-I1:!4522.10N/01814.60EIiGate&W2 DJAKOVO CRLNet.108 http://elco.hr
2021-04-14 14:07:529A3XK>APMI06,TCPIP*,qAC,APRSFI-I1:T#167,056,034,002,02991,062,00000000
2021-04-14 14:02:529A3XK>APMI06,TCPIP*,qAC,APRSFI-I1:T#166,059,034,001,02988,062,00000000
2021-04-14 13:57:529A3XK>APMI06,TCPIP*,qAC,APRSFI-I1:T#165,053,033,002,02988,062,00000000
2021-04-14 13:54:539A3XK>APMI06,WIDE1-1,qAR,9A6ICN:T#164,056,034,002,02989,062,00000000
2021-04-14 13:52:529A3XK>APMI06,TCPIP*,qAC,APRSFI-I1:T#163,056,034,001,02990,062,00000000
2021-04-14 13:52:189A3XK>BEACON,WIDE1-1,qAR,9A6ICN:Power 9W Gain 3dB Height 240m Ant omni
2021-04-14 13:52:089A3XK>BEACON,WIDE1-1,qAR,9A6ICN:CRLNet.108 - SysOp 9a3XK & 9a7kxp-Internet via DJWIRELES http://djw.hr/
2021-04-14 13:47:529A3XK>APMI06,TCPIP*,qAC,APRSFI-I1:T#162,058,034,002,02987,062,00000000
2021-04-14 13:42:529A3XK>APMI06,TCPIP*,qAC,APRSFI-I1:T#161,061,034,003,02989,062,00000000
2021-04-14 13:42:179A3XK>BEACON,TCPIP*,qAC,APRSFI-I1:Power 9W Gain 3dB Height 240m Ant omni
2021-04-14 13:42:029A3XK>APMI06,TCPIP*,qAC,APRSFI-I1:>http://crlnet.it - WX3IN1 Plus 2.0 - v1.13 - 12.0C - 12.1V
2021-04-14 13:41:57!4522.10N/01814.60EIiGate&W2 DJAKOVO CRLNet.108 http://elco.hr9A3XK>APMI06,TCPIP*,qAC,APRSFI-I1:!4522.10N/01814.60EIiGate&W2 DJAKOVO CRLNet.108 http://elco.hr
2021-04-14 13:38:58!4522.10N/01814.60EIiGate&W2 DJAKOVO CRLNet.108 http://elco.hr9A3XK>APMI06,WIDE2-2,qAR,9A6ICN:!4522.10N/01814.60EIiGate&W2 DJAKOVO CRLNet.108 http://elco.hr
2021-04-14 13:37:529A3XK>APMI06,TCPIP*,qAC,APRSFI-I1:T#160,057,035,002,02987,062,00000000
2021-04-14 13:32:529A3XK>APMI06,TCPIP*,qAC,APRSFI-I1:T#159,056,034,005,02985,062,00000000
2021-04-14 13:27:529A3XK>APMI06,TCPIP*,qAC,APRSFI-I1:T#158,053,035,006,02984,062,00000000
2021-04-14 13:25:539A3XK>APMI06,WIDE1-1,qAR,9A6ICN:T#157,037,036,003,02982,062,00000000
2021-04-14 13:22:529A3XK>APMI06,TCPIP*,qAC,APRSFI-I1:T#156,035,036,001,02977,062,00000000
2021-04-14 13:18:00!4522.10N/01814.60EIiGate&W2 DJAKOVO CRLNet.108 http://elco.hr9A3XK>APMI06,WIDE2-2,qAR,9A6ICN:!4522.10N/01814.60EIiGate&W2 DJAKOVO CRLNet.108 http://elco.hr
2021-04-14 13:17:529A3XK>APMI06,TCPIP*,qAC,APRSFI-I1:T#155,052,037,002,02973,062,00000000
2021-04-14 13:12:529A3XK>APMI06,TCPIP*,qAC,APRSFI-I1:T#154,057,038,003,02975,062,00000000
2021-04-14 13:12:179A3XK>BEACON,TCPIP*,qAC,APRSFI-I1:Power 9W Gain 3dB Height 240m Ant omni
2021-04-14 13:12:029A3XK>APMI06,TCPIP*,qAC,APRSFI-I1:>http://crlnet.it - WX3IN1 Plus 2.0 - v1.13 - 11.7C - 12.1V
2021-04-14 13:11:57!4522.10N/01814.60EIiGate&W2 DJAKOVO CRLNet.108 http://elco.hr9A3XK>APMI06,TCPIP*,qAC,APRSFI-I1:!4522.10N/01814.60EIiGate&W2 DJAKOVO CRLNet.108 http://elco.hr
2021-04-14 13:07:529A3XK>APMI06,TCPIP*,qAC,APRSFI-I1:T#153,053,038,002,02972,062,00000000
2021-04-14 13:02:529A3XK>APMI06,TCPIP*,qAC,APRSFI-I1:T#152,052,037,001,02969,062,00000000
2021-04-14 13:02:189A3XK>BEACON,WIDE1-1,qAR,9A6ICN:Power 9W Gain 3dB Height 240m Ant omni
2021-04-14 13:02:089A3XK>BEACON,WIDE1-1,qAR,9A6ICN:CRLNet.108 - SysOp 9a3XK & 9a7kxp-Internet via DJWIRELES http://djw.hr/
2021-04-14 12:57:529A3XK>APMI06,TCPIP*,qAC,APRSFI-I1:T#151,051,036,002,02969,062,00000000
2021-04-14 12:56:58!4522.10N/01814.60EIiGate&W2 DJAKOVO CRLNet.108 http://elco.hr9A3XK>APMI06,WIDE2-2,qAR,9A6ICN:!4522.10N/01814.60EIiGate&W2 DJAKOVO CRLNet.108 http://elco.hr
2021-04-14 12:56:539A3XK>APMI06,WIDE1-1,qAR,9A6ICN:T#150,047,036,002,02970,062,00000000
2021-04-14 12:52:529A3XK>APMI06,TCPIP*,qAC,APRSFI-I1:T#149,062,037,001,02971,062,00000000
2021-04-14 12:47:529A3XK>APMI06,TCPIP*,qAC,APRSFI-I1:T#148,071,035,001,02968,062,00000000
2021-04-14 12:42:529A3XK>APMI06,TCPIP*,qAC,APRSFI-I1:T#147,059,034,002,02968,062,00000000
2021-04-14 12:42:459A3XK>APMI06,WIDE1-1,qAR,9A6ICN::9A3XK :BITS.11111111,DJAKOVO 5' Stats.
2021-04-14 12:42:449A3XK>APMI06,WIDE1-1,qAR,9A6ICN::9A3XK :EQNS.0,1,0,0,10,0,0,1,0,0,0.001,0,0,1,0
2021-04-14 12:42:449A3XK>APMI06,WIDE1-1,qAR,9A6ICN::9A3XK :UNIT.Pkt,Pkt,Pkt,Pcnt,Pcnt,On,On,On,On,Hi,Hi,Hi,Hi
2021-04-14 12:42:439A3XK>APMI06,WIDE1-1,qAR,9A6ICN::9A3XK :PARM.Rx10m,Rx1h,Dg10m,DgR,Eff,O1,O2,O3,O4,I1,I2,I3,I4
2021-04-14 12:42:179A3XK>BEACON,TCPIP*,qAC,APRSFI-I1:Power 9W Gain 3dB Height 240m Ant omni
2021-04-14 12:42:029A3XK>APMI06,TCPIP*,qAC,APRSFI-I1:>http://crlnet.it - WX3IN1 Plus 2.0 - v1.13 - 11.8C - 12.1V
2021-04-14 12:41:57!4522.10N/01814.60EIiGate&W2 DJAKOVO CRLNet.108 http://elco.hr9A3XK>APMI06,TCPIP*,qAC,APRSFI-I1:!4522.10N/01814.60EIiGate&W2 DJAKOVO CRLNet.108 http://elco.hr
2021-04-14 12:37:529A3XK>APMI06,TCPIP*,qAC,APRSFI-I1:T#146,060,032,002,02971,062,00000000
2021-04-14 12:35:58!4522.10N/01814.60EIiGate&W2 DJAKOVO CRLNet.108 http://elco.hr9A3XK>APMI06,WIDE2-2,qAR,9A6ICN:!4522.10N/01814.60EIiGate&W2 DJAKOVO CRLNet.108 http://elco.hr
2021-04-14 12:32:529A3XK>APMI06,TCPIP*,qAC,APRSFI-I1:T#145,069,031,001,02968,062,00000000
2021-04-14 12:27:539A3XK>APMI06,WIDE1-1,qAR,9A6ICN:T#143,066,030,001,02968,062,00000000
2021-04-14 12:27:529A3XK>APMI06,TCPIP*,qAC,APRSFI-I1:T#144,066,030,001,02968,062,00000000
2021-04-14 12:22:539A3XK>APMI06,TCPIP*,qAC,APRSFI-I1:T#142,056,029,000,02971,062,00000000
2021-04-14 12:17:529A3XK>APMI06,TCPIP*,qAC,APRSFI-I1:T#141,060,027,001,02972,062,00000000
2021-04-14 12:14:58!4522.10N/01814.60EIiGate&W2 DJAKOVO CRLNet.108 http://elco.hr9A3XK>APMI06,WIDE2-2,qAR,9A6ICN:!4522.10N/01814.60EIiGate&W2 DJAKOVO CRLNet.108 http://elco.hr
2021-04-14 12:12:529A3XK>APMI06,TCPIP*,qAC,APRSFI-I1:T#140,051,025,003,02973,062,00000000
2021-04-14 12:12:189A3XK>BEACON,TCPIP*,qAC,APRSFI-I1:Power 9W Gain 3dB Height 240m Ant omni
2021-04-14 12:12:089A3XK>BEACON,WIDE1-1,qAR,9A6ICN:CRLNet.108 - SysOp 9a3XK & 9a7kxp-Internet via DJWIRELES http://djw.hr/
2021-04-14 12:12:039A3XK>APMI06,TCPIP*,qAC,APRSFI-I1:>http://crlnet.it - WX3IN1 Plus 2.0 - v1.13 - 11.6C - 12.1V
2021-04-14 12:11:57!4522.10N/01814.60EIiGate&W2 DJAKOVO CRLNet.108 http://elco.hr9A3XK>APMI06,TCPIP*,qAC,APRSFI-I1:!4522.10N/01814.60EIiGate&W2 DJAKOVO CRLNet.108 http://elco.hr
2021-04-14 12:07:529A3XK>APMI06,TCPIP*,qAC,APRSFI-I1:T#139,040,022,002,02974,062,00000000
2021-04-14 12:02:529A3XK>APMI06,TCPIP*,qAC,APRSFI-I1:T#138,047,023,001,02970,062,00000000
2021-04-14 11:58:539A3XK>APMI06,WIDE1-1,qAR,9A6ICN:T#137,032,021,001,02971,062,00000000
2021-04-14 11:57:539A3XK>APMI06,TCPIP*,qAC,APRSFI-I1:T#136,040,021,002,02969,062,00000000
2021-04-14 11:53:58!4522.10N/01814.60EIiGate&W2 DJAKOVO CRLNet.108 http://elco.hr9A3XK>APMI06,WIDE2-2,qAR,9A6ICN:!4522.10N/01814.60EIiGate&W2 DJAKOVO CRLNet.108 http://elco.hr
2021-04-14 11:52:529A3XK>APMI06,TCPIP*,qAC,APRSFI-I1:T#135,042,019,002,02971,062,00000000
2021-04-14 11:47:539A3XK>APMI06,TCPIP*,qAC,APRSFI-I1:T#134,043,018,001,02967,062,00000000
2021-04-14 11:42:539A3XK>APMI06,TCPIP*,qAC,APRSFI-I1:T#133,026,016,001,02967,062,00000000
2021-04-14 11:42:189A3XK>BEACON,TCPIP*,qAC,APRSFI-I1:Power 9W Gain 3dB Height 240m Ant omni
2021-04-14 11:42:039A3XK>APMI06,TCPIP*,qAC,APRSFI-I1:>http://crlnet.it - WX3IN1 Plus 2.0 - v1.13 - 11.3C - 12.1V
2021-04-14 11:41:57!4522.10N/01814.60EIiGate&W2 DJAKOVO CRLNet.108 http://elco.hr9A3XK>APMI06,TCPIP*,qAC,APRSFI-I1:!4522.10N/01814.60EIiGate&W2 DJAKOVO CRLNet.108 http://elco.hr
2021-04-14 11:37:529A3XK>APMI06,TCPIP*,qAC,APRSFI-I1:T#132,045,016,002,02968,062,00000000
2021-04-14 11:33:01!4522.10N/01814.60EIiGate&W2 DJAKOVO CRLNet.108 http://elco.hr9A3XK>APMI06,9A0XNG-1*,WIDE2-1,qAR,9A1BN-11:!4522.10N/01814.60EIiGate&W2 DJAKOVO CRLNet.108 http://elco.hr
2021-04-14 11:32:539A3XK>APMI06,TCPIP*,qAC,APRSFI-I1:T#131,053,015,001,02967,062,00000000
2021-04-14 11:29:539A3XK>APMI06,WIDE1-1,qAR,9A6ICN:T#130,046,015,002,02968,062,00000000
2021-04-14 11:27:539A3XK>APMI06,TCPIP*,qAC,APRSFI-I1:T#129,038,013,001,02967,062,00000000
2021-04-14 11:22:529A3XK>APMI06,TCPIP*,qAC,APRSFI-I1:T#128,022,011,000,02968,062,00000000
2021-04-14 11:22:189A3XK>BEACON,WIDE1-1,qAR,9A6ICN:Power 9W Gain 3dB Height 240m Ant omni
2021-04-14 11:17:539A3XK>APMI06,TCPIP*,qAC,APRSFI-I1:T#127,013,011,000,02967,062,00000000
2021-04-14 11:12:529A3XK>APMI06,TCPIP*,qAC,APRSFI-I1:T#126,027,013,001,02968,062,00000000
2021-04-14 11:12:189A3XK>BEACON,TCPIP*,qAC,APRSFI-I1:Power 9W Gain 3dB Height 240m Ant omni
2021-04-14 11:12:039A3XK>APMI06,TCPIP*,qAC,APRSFI-I1:>http://crlnet.it - WX3IN1 Plus 2.0 - v1.13 - 11.8C - 12.1V
2021-04-14 11:11:58!4522.10N/01814.60EIiGate&W2 DJAKOVO CRLNet.108 http://elco.hr9A3XK>APMI06,TCPIP*,qAC,APRSFI-I1:!4522.10N/01814.60EIiGate&W2 DJAKOVO CRLNet.108 http://elco.hr
2021-04-14 11:07:539A3XK>APMI06,TCPIP*,qAC,APRSFI-I1:T#125,028,014,001,02968,062,00000000
2021-04-14 11:02:539A3XK>APMI06,TCPIP*,qAC,APRSFI-I1:T#124,012,013,000,02967,062,00000000
2021-04-14 11:00:539A3XK>APMI06,WIDE1-1,qAR,9A6ICN:T#123,011,013,001,02968,062,00000000
2021-04-14 10:57:539A3XK>APMI06,TCPIP*,qAC,APRSFI-I1:T#122,017,013,001,02968,062,00000000
2021-04-14 10:52:539A3XK>APMI06,TCPIP*,qAC,APRSFI-I1:T#121,018,013,000,02968,062,00000000
2021-04-14 10:50:58!4522.10N/01814.60EIiGate&W2 DJAKOVO CRLNet.108 http://elco.hr9A3XK>APMI06,WIDE2-2,qAR,9A6ICN:!4522.10N/01814.60EIiGate&W2 DJAKOVO CRLNet.108 http://elco.hr
2021-04-14 10:47:539A3XK>APMI06,TCPIP*,qAC,APRSFI-I1:T#120,021,014,000,02967,062,00000000
2021-04-14 10:42:539A3XK>APMI06,TCPIP*,qAC,APRSFI-I1:T#119,015,014,001,02967,062,00000000
2021-04-14 10:42:189A3XK>BEACON,TCPIP*,qAC,APRSFI-I1:Power 9W Gain 3dB Height 240m Ant omni
2021-04-14 10:42:039A3XK>APMI06,TCPIP*,qAC,APRSFI-I1:>http://crlnet.it - WX3IN1 Plus 2.0 - v1.13 - 11.9C - 12.1V
2021-04-14 10:41:58!4522.10N/01814.60EIiGate&W2 DJAKOVO CRLNet.108 http://elco.hr9A3XK>APMI06,TCPIP*,qAC,APRSFI-I1:!4522.10N/01814.60EIiGate&W2 DJAKOVO CRLNet.108 http://elco.hr
2021-04-14 10:37:539A3XK>APMI06,TCPIP*,qAC,APRSFI-I1:T#118,019,013,001,02968,062,00000000
2021-04-14 10:32:539A3XK>APMI06,TCPIP*,qAC,APRSFI-I1:T#117,015,013,000,02966,062,00000000
2021-04-14 10:32:189A3XK>BEACON,WIDE1-1,qAR,9A6ICN:Power 9W Gain 3dB Height 240m Ant omni
2021-04-14 10:32:099A3XK>BEACON,WIDE1-1,qAR,9A6ICN:CRLNet.108 - SysOp 9a3XK & 9a7kxp-Internet via DJWIRELES http://djw.hr/
2021-04-14 10:31:539A3XK>APMI06,WIDE1-1,qAR,9A6ICN:T#116,014,013,000,02967,062,00000000
2021-04-14 10:29:59!4522.10N/01814.60EIiGate&W2 DJAKOVO CRLNet.108 http://elco.hr9A3XK>APMI06,WIDE2-2,qAR,9A6ICN:!4522.10N/01814.60EIiGate&W2 DJAKOVO CRLNet.108 http://elco.hr
2021-04-14 10:27:539A3XK>APMI06,TCPIP*,qAC,APRSFI-I1:T#115,017,013,000,02967,062,00000000
2021-04-14 10:22:539A3XK>APMI06,TCPIP*,qAC,APRSFI-I1:T#114,033,014,000,02967,062,00000000
2021-04-14 10:17:539A3XK>APMI06,TCPIP*,qAC,APRSFI-I1:T#113,035,014,001,02968,062,00000000
2021-04-14 10:12:539A3XK>APMI06,TCPIP*,qAC,APRSFI-I1:T#112,025,012,003,02970,062,00000000
2021-04-14 10:12:189A3XK>BEACON,TCPIP*,qAC,APRSFI-I1:Power 9W Gain 3dB Height 240m Ant omni
2021-04-14 10:12:039A3XK>APMI06,TCPIP*,qAC,APRSFI-I1:>http://crlnet.it - WX3IN1 Plus 2.0 - v1.13 - 11.8C - 12.1V
2021-04-14 10:11:58!4522.10N/01814.60EIiGate&W2 DJAKOVO CRLNet.108 http://elco.hr9A3XK>APMI06,TCPIP*,qAC,APRSFI-I1:!4522.10N/01814.60EIiGate&W2 DJAKOVO CRLNet.108 http://elco.hr
2021-04-14 10:08:58!4522.10N/01814.60EIiGate&W2 DJAKOVO CRLNet.108 http://elco.hr9A3XK>APMI06,WIDE2-2,qAR,9A6ICN:!4522.10N/01814.60EIiGate&W2 DJAKOVO CRLNet.108 http://elco.hr
2021-04-14 10:07:539A3XK>APMI06,TCPIP*,qAC,APRSFI-I1:T#111,019,012,002,02969,062,00000000
2021-04-14 10:02:539A3XK>APMI06,WIDE1-1,qAR,9A6ICN:T#109,010,012,000,02965,062,00000000
2021-04-14 10:02:539A3XK>APMI06,TCPIP*,qAC,APRSFI-I1:T#110,010,012,000,02965,062,00000000
2021-04-14 09:57:539A3XK>APMI06,TCPIP*,qAC,APRSFI-I1:T#108,024,014,000,02965,062,00000000
2021-04-14 09:52:539A3XK>APMI06,TCPIP*,qAC,APRSFI-I1:T#107,033,013,000,02966,062,00000000
2021-04-14 09:47:58!4522.10N/01814.60EIiGate&W2 DJAKOVO CRLNet.108 http://elco.hr9A3XK>APMI06,WIDE2-2,qAR,9A6ICN:!4522.10N/01814.60EIiGate&W2 DJAKOVO CRLNet.108 http://elco.hr
2021-04-14 09:47:539A3XK>APMI06,TCPIP*,qAC,APRSFI-I1:T#106,016,013,000,02967,062,00000000
2021-04-14 09:42:539A3XK>APMI06,TCPIP*,qAC,APRSFI-I1:T#105,014,013,001,02968,062,00000000
2021-04-14 09:42:189A3XK>BEACON,TCPIP*,qAC,APRSFI-I1:Power 9W Gain 3dB Height 240m Ant omni
2021-04-14 09:42:089A3XK>BEACON,WIDE1-1,qAR,9A6ICN:CRLNet.108 - SysOp 9a3XK & 9a7kxp-Internet via DJWIRELES http://djw.hr/
2021-04-14 09:42:039A3XK>APMI06,TCPIP*,qAC,APRSFI-I1:>http://crlnet.it - WX3IN1 Plus 2.0 - v1.13 - 11.8C - 12.1V
2021-04-14 09:41:58!4522.10N/01814.60EIiGate&W2 DJAKOVO CRLNet.108 http://elco.hr9A3XK>APMI06,TCPIP*,qAC,APRSFI-I1:!4522.10N/01814.60EIiGate&W2 DJAKOVO CRLNet.108 http://elco.hr
2021-04-14 09:37:539A3XK>APMI06,TCPIP*,qAC,APRSFI-I1:T#104,019,013,001,02968,062,00000000
2021-04-14 09:33:549A3XK>APMI06,WIDE1-1,qAR,9A6ICN:T#103,025,014,000,02969,062,00000000
2021-04-14 09:32:539A3XK>APMI06,TCPIP*,qAC,APRSFI-I1:T#102,028,015,000,02967,062,00000000
2021-04-14 09:27:539A3XK>APMI06,TCPIP*,qAC,APRSFI-I1:T#101,025,014,000,02967,062,00000000
2021-04-14 09:26:58!4522.10N/01814.60EIiGate&W2 DJAKOVO CRLNet.108 http://elco.hr9A3XK>APMI06,WIDE2-2,qAR,9A6ICN:!4522.10N/01814.60EIiGate&W2 DJAKOVO CRLNet.108 http://elco.hr
2021-04-14 09:22:539A3XK>APMI06,TCPIP*,qAC,APRSFI-I1:T#100,016,013,000,02969,062,00000000
2021-04-14 09:17:539A3XK>APMI06,TCPIP*,qAC,APRSFI-I1:T#099,016,013,000,02969,062,00000000
2021-04-14 09:12:539A3XK>APMI06,TCPIP*,qAC,APRSFI-I1:T#098,019,013,001,02970,062,00000000
2021-04-14 09:12:189A3XK>BEACON,TCPIP*,qAC,APRSFI-I1:Power 9W Gain 3dB Height 240m Ant omni
2021-04-14 09:12:039A3XK>APMI06,TCPIP*,qAC,APRSFI-I1:>http://crlnet.it - WX3IN1 Plus 2.0 - v1.13 - 11.4C - 12.1V
2021-04-14 09:11:58!4522.10N/01814.60EIiGate&W2 DJAKOVO CRLNet.108 http://elco.hr9A3XK>APMI06,TCPIP*,qAC,APRSFI-I1:!4522.10N/01814.60EIiGate&W2 DJAKOVO CRLNet.108 http://elco.hr
2021-04-14 09:07:539A3XK>APMI06,TCPIP*,qAC,APRSFI-I1:T#097,035,014,001,02971,062,00000000
2021-04-14 09:05:58!4522.10N/01814.60EIiGate&W2 DJAKOVO CRLNet.108 http://elco.hr9A3XK>APMI06,WIDE2-2,qAR,9A6ICN:!4522.10N/01814.60EIiGate&W2 DJAKOVO CRLNet.108 http://elco.hr
2021-04-14 09:02:539A3XK>APMI06,TCPIP*,qAC,APRSFI-I1:T#095,024,014,000,02969,062,00000000
2021-04-14 08:57:539A3XK>APMI06,TCPIP*,qAC,APRSFI-I1:T#094,017,014,000,02971,062,00000000
2021-04-14 08:52:539A3XK>APMI06,TCPIP*,qAC,APRSFI-I1:T#093,024,014,000,02971,062,00000000
2021-04-14 08:52:199A3XK>BEACON,WIDE1-1,qAR,9A6ICN:Power 9W Gain 3dB Height 240m Ant omni
2021-04-14 08:52:099A3XK>BEACON,WIDE1-1,qAR,9A6ICN:CRLNet.108 - SysOp 9a3XK & 9a7kxp-Internet via DJWIRELES http://djw.hr/
2021-04-14 08:47:539A3XK>APMI06,TCPIP*,qAC,APRSFI-I1:T#092,020,014,000,02972,062,00000000
2021-04-14 08:44:59!4522.10N/01814.60EIiGate&W2 DJAKOVO CRLNet.108 http://elco.hr9A3XK>APMI06,WIDE2-2,qAR,9A6ICN:!4522.10N/01814.60EIiGate&W2 DJAKOVO CRLNet.108 http://elco.hr
2021-04-14 08:42:539A3XK>APMI06,TCPIP*,qAC,APRSFI-I1:T#091,033,015,001,02973,062,00000000
2021-04-14 08:42:189A3XK>BEACON,TCPIP*,qAC,APRSFI-I1:Power 9W Gain 3dB Height 240m Ant omni
2021-04-14 08:42:039A3XK>APMI06,TCPIP*,qAC,APRSFI-I1:>http://crlnet.it - WX3IN1 Plus 2.0 - v1.13 - 11.9C - 12.1V
2021-04-14 08:41:58!4522.10N/01814.60EIiGate&W2 DJAKOVO CRLNet.108 http://elco.hr9A3XK>APMI06,TCPIP*,qAC,APRSFI-I1:!4522.10N/01814.60EIiGate&W2 DJAKOVO CRLNet.108 http://elco.hr
2021-04-14 08:37:539A3XK>APMI06,TCPIP*,qAC,APRSFI-I1:T#090,028,016,002,02974,062,00000000
2021-04-14 08:35:539A3XK>APMI06,WIDE1-1,qAR,9A6ICN:T#089,015,015,002,02975,062,00000000
2021-04-14 08:32:539A3XK>APMI06,TCPIP*,qAC,APRSFI-I1:T#088,014,016,001,02973,062,00000000
2021-04-14 08:27:539A3XK>APMI06,TCPIP*,qAC,APRSFI-I1:T#087,013,017,000,02971,062,00000000
2021-04-14 08:23:59!4522.10N/01814.60EIiGate&W2 DJAKOVO CRLNet.108 http://elco.hr9A3XK>APMI06,WIDE2-2,qAR,9A6ICN:!4522.10N/01814.60EIiGate&W2 DJAKOVO CRLNet.108 http://elco.hr
2021-04-14 08:22:539A3XK>APMI06,TCPIP*,qAC,APRSFI-I1:T#086,016,017,000,02972,062,00000000
2021-04-14 08:17:539A3XK>APMI06,TCPIP*,qAC,APRSFI-I1:T#085,026,018,001,02972,062,00000000
2021-04-14 08:12:539A3XK>APMI06,TCPIP*,qAC,APRSFI-I1:T#084,030,019,001,02973,062,00000000
2021-04-14 08:12:189A3XK>BEACON,TCPIP*,qAC,APRSFI-I1:Power 9W Gain 3dB Height 240m Ant omni
2021-04-14 08:12:039A3XK>APMI06,TCPIP*,qAC,APRSFI-I1:>http://crlnet.it - WX3IN1 Plus 2.0 - v1.13 - 12.1C - 12.1V
2021-04-14 08:11:58!4522.10N/01814.60EIiGate&W2 DJAKOVO CRLNet.108 http://elco.hr9A3XK>APMI06,TCPIP*,qAC,APRSFI-I1:!4522.10N/01814.60EIiGate&W2 DJAKOVO CRLNet.108 http://elco.hr
2021-04-14 08:07:539A3XK>APMI06,TCPIP*,qAC,APRSFI-I1:T#083,028,019,000,02972,062,00000000
2021-04-14 08:06:549A3XK>APMI06,WIDE1-1,qAR,9A6ICN:T#082,022,019,000,02972,062,00000000
2021-04-14 08:02:539A3XK>APMI06,TCPIP*,qAC,APRSFI-I1:T#081,020,020,000,02973,062,00000000
2021-04-14 08:02:199A3XK>BEACON,WIDE1-1,qAR,9A6ICN:Power 9W Gain 3dB Height 240m Ant omni
2021-04-14 08:02:099A3XK>BEACON,WIDE1-1,qAR,9A6ICN:CRLNet.108 - SysOp 9a3XK & 9a7kxp-Internet via DJWIRELES http://djw.hr/
2021-04-14 07:57:539A3XK>APMI06,TCPIP*,qAC,APRSFI-I1:T#080,023,020,000,02974,062,00000000
2021-04-14 07:54:439A3XK>APMI06,TCPIP*,qAC,APRSFI-I1::9A3XK :BITS.11111111,DJAKOVO 5' Stats.
2021-04-14 07:54:439A3XK>APMI06,TCPIP*,qAC,APRSFI-I1::9A3XK :EQNS.0,1,0,0,10,0,0,1,0,0,0.001,0,0,1,0
2021-04-14 07:54:439A3XK>APMI06,TCPIP*,qAC,APRSFI-I1::9A3XK :UNIT.Pkt,Pkt,Pkt,Pcnt,Pcnt,On,On,On,On,Hi,Hi,Hi,Hi
2021-04-14 07:54:439A3XK>APMI06,TCPIP*,qAC,APRSFI-I1::9A3XK :PARM.Rx10m,Rx1h,Dg10m,DgR,Eff,O1,O2,O3,O4,I1,I2,I3,I4
2021-04-14 07:54:089A3XK>BEACON,TCPIP*,qAC,APRSFI-I1:CRLNet.108 - SysOp 9a3XK & 9a7kxp-Internet via DJWIRELES http://djw.hr/
2021-04-14 07:52:539A3XK>APMI06,TCPIP*,qAC,APRSFI-I1:T#079,030,021,000,02975,062,00000000
2021-04-14 07:47:539A3XK>APMI06,TCPIP*,qAC,APRSFI-I1:T#078,039,021,000,02976,062,00000000
2021-04-14 07:42:539A3XK>APMI06,TCPIP*,qAC,APRSFI-I1:T#077,031,020,000,02977,062,00000000
2021-04-14 07:42:189A3XK>BEACON,TCPIP*,qAC,APRSFI-I1:Power 9W Gain 3dB Height 240m Ant omni
2021-04-14 07:42:039A3XK>APMI06,TCPIP*,qAC,APRSFI-I1:>http://crlnet.it - WX3IN1 Plus 2.0 - v1.13 - 12.0C - 12.1V
2021-04-14 07:41:58!4522.10N/01814.60EIiGate&W2 DJAKOVO CRLNet.108 http://elco.hr9A3XK>APMI06,TCPIP*,qAC,APRSFI-I1:!4522.10N/01814.60EIiGate&W2 DJAKOVO CRLNet.108 http://elco.hr
2021-04-14 07:37:539A3XK>APMI06,TCPIP*,qAC,APRSFI-I1:T#076,034,021,001,02979,062,00000000
2021-04-14 07:37:539A3XK>APMI06,WIDE1-1,qAR,9A6ICN:T#075,034,021,001,02979,062,00000000
2021-04-14 07:32:539A3XK>APMI06,TCPIP*,qAC,APRSFI-I1:T#074,023,020,000,02978,062,00000000
2021-04-14 07:27:539A3XK>APMI06,TCPIP*,qAC,APRSFI-I1:T#073,033,021,000,02979,062,00000000
2021-04-14 07:22:539A3XK>APMI06,TCPIP*,qAC,APRSFI-I1:T#072,037,021,000,02979,062,00000000
2021-04-14 07:20:59!4522.10N/01814.60EIiGate&W2 DJAKOVO CRLNet.108 http://elco.hr9A3XK>APMI06,WIDE2-2,qAR,9A6ICN:!4522.10N/01814.60EIiGate&W2 DJAKOVO CRLNet.108 http://elco.hr
2021-04-14 07:17:539A3XK>APMI06,TCPIP*,qAC,APRSFI-I1:T#071,036,021,000,02981,062,00000000
2021-04-14 07:12:539A3XK>APMI06,TCPIP*,qAC,APRSFI-I1:T#070,040,020,000,02982,062,00000000
2021-04-14 07:12:189A3XK>BEACON,TCPIP*,qAC,APRSFI-I1:Power 9W Gain 3dB Height 240m Ant omni
2021-04-14 07:12:099A3XK>BEACON,WIDE1-1,qAR,9A6ICN:CRLNet.108 - SysOp 9a3XK & 9a7kxp-Internet via DJWIRELES http://djw.hr/
2021-04-14 07:12:039A3XK>APMI06,TCPIP*,qAC,APRSFI-I1:>http://crlnet.it - WX3IN1 Plus 2.0 - v1.13 - 11.8C - 12.1V
2021-04-14 07:11:58!4522.10N/01814.60EIiGate&W2 DJAKOVO CRLNet.108 http://elco.hr9A3XK>APMI06,TCPIP*,qAC,APRSFI-I1:!4522.10N/01814.60EIiGate&W2 DJAKOVO CRLNet.108 http://elco.hr
2021-04-14 07:08:549A3XK>APMI06,WIDE1-1,qAR,9A6ICN:T#069,035,020,001,02984,062,00000000
2021-04-14 07:07:539A3XK>APMI06,TCPIP*,qAC,APRSFI-I1:T#068,035,020,001,02984,062,00000000
2021-04-14 07:02:539A3XK>APMI06,TCPIP*,qAC,APRSFI-I1:T#067,034,021,000,02983,062,00000000
2021-04-14 06:59:59!4522.10N/01814.60EIiGate&W2 DJAKOVO CRLNet.108 http://elco.hr9A3XK>APMI06,WIDE2-2,qAR,9A6ICN:!4522.10N/01814.60EIiGate&W2 DJAKOVO CRLNet.108 http://elco.hr
2021-04-14 06:57:539A3XK>APMI06,TCPIP*,qAC,APRSFI-I1:T#066,029,021,000,02984,062,00000000
2021-04-14 06:52:539A3XK>APMI06,TCPIP*,qAC,APRSFI-I1:T#065,023,020,000,02986,062,00000000
2021-04-14 06:47:539A3XK>APMI06,TCPIP*,qAC,APRSFI-I1:T#064,041,020,000,02987,062,00000000
2021-04-14 06:42:539A3XK>APMI06,TCPIP*,qAC,APRSFI-I1:T#063,026,019,001,02988,062,00000000
2021-04-14 06:42:459A3XK>APMI06,WIDE1-1,qAR,9A6ICN::9A3XK :BITS.11111111,DJAKOVO 5' Stats.
2021-04-14 06:42:459A3XK>APMI06,WIDE1-1,qAR,9A6ICN::9A3XK :EQNS.0,1,0,0,10,0,0,1,0,0,0.001,0,0,1,0
2021-04-14 06:42:449A3XK>APMI06,WIDE1-1,qAR,9A6ICN::9A3XK :UNIT.Pkt,Pkt,Pkt,Pcnt,Pcnt,On,On,On,On,Hi,Hi,Hi,Hi
2021-04-14 06:42:449A3XK>APMI06,WIDE1-1,qAR,9A6ICN::9A3XK :PARM.Rx10m,Rx1h,Dg10m,DgR,Eff,O1,O2,O3,O4,I1,I2,I3,I4
2021-04-14 06:42:189A3XK>BEACON,TCPIP*,qAC,APRSFI-I1:Power 9W Gain 3dB Height 240m Ant omni
2021-04-14 06:42:039A3XK>APMI06,TCPIP*,qAC,APRSFI-I1:>http://crlnet.it - WX3IN1 Plus 2.0 - v1.13 - 11.2C - 12.1V
2021-04-14 06:41:58!4522.10N/01814.60EIiGate&W2 DJAKOVO CRLNet.108 http://elco.hr9A3XK>APMI06,TCPIP*,qAC,APRSFI-I1:!4522.10N/01814.60EIiGate&W2 DJAKOVO CRLNet.108 http://elco.hr
2021-04-14 06:39:549A3XK>APMI06,WIDE1-1,qAR,9A6ICN:T#062,031,020,001,02989,062,00000000
2021-04-14 06:38:59!4522.10N/01814.60EIiGate&W2 DJAKOVO CRLNet.108 http://elco.hr9A3XK>APMI06,WIDE2-2,qAR,9A6ICN:!4522.10N/01814.60EIiGate&W2 DJAKOVO CRLNet.108 http://elco.hr
2021-04-14 06:37:539A3XK>APMI06,TCPIP*,qAC,APRSFI-I1:T#061,032,020,001,02990,062,00000000
2021-04-14 06:32:539A3XK>APMI06,TCPIP*,qAC,APRSFI-I1:T#060,024,021,000,02988,062,00000000
2021-04-14 06:27:539A3XK>APMI06,TCPIP*,qAC,APRSFI-I1:T#059,033,021,000,02990,062,00000000
2021-04-14 06:22:539A3XK>APMI06,TCPIP*,qAC,APRSFI-I1:T#058,031,021,000,02991,062,00000000
2021-04-14 06:22:199A3XK>BEACON,WIDE1-1,qAR,9A6ICN:Power 9W Gain 3dB Height 240m Ant omni
2021-04-14 06:22:099A3XK>BEACON,WIDE1-1,qAR,9A6ICN:CRLNet.108 - SysOp 9a3XK & 9a7kxp-Internet via DJWIRELES http://djw.hr/
2021-04-14 06:17:59!4522.10N/01814.60EIiGate&W2 DJAKOVO CRLNet.108 http://elco.hr9A3XK>APMI06,WIDE2-2,qAR,9A6ICN:!4522.10N/01814.60EIiGate&W2 DJAKOVO CRLNet.108 http://elco.hr
2021-04-14 06:17:539A3XK>APMI06,TCPIP*,qAC,APRSFI-I1:T#057,030,021,000,02993,062,00000000
2021-04-14 06:12:539A3XK>APMI06,TCPIP*,qAC,APRSFI-I1:T#056,043,022,001,02994,062,00000000
2021-04-14 06:12:189A3XK>BEACON,TCPIP*,qAC,APRSFI-I1:Power 9W Gain 3dB Height 240m Ant omni
2021-04-14 06:12:039A3XK>APMI06,TCPIP*,qAC,APRSFI-I1:>http://crlnet.it - WX3IN1 Plus 2.0 - v1.13 - 11.6C - 12.1V
2021-04-14 06:11:58!4522.10N/01814.60EIiGate&W2 DJAKOVO CRLNet.108 http://elco.hr9A3XK>APMI06,TCPIP*,qAC,APRSFI-I1:!4522.10N/01814.60EIiGate&W2 DJAKOVO CRLNet.108 http://elco.hr
2021-04-14 06:10:549A3XK>APMI06,WIDE1-1,qAR,9A6ICN:T#055,035,022,001,02994,062,00000000
2021-04-14 06:07:539A3XK>APMI06,TCPIP*,qAC,APRSFI-I1:T#054,038,023,001,02995,062,00000000
2021-04-14 06:02:539A3XK>APMI06,TCPIP*,qAC,APRSFI-I1:T#053,023,022,000,02995,062,00000000
2021-04-14 05:57:539A3XK>APMI06,TCPIP*,qAC,APRSFI-I1:T#052,024,022,000,02995,062,00000000
2021-04-14 05:56:59!4522.10N/01814.60EIiGate&W2 DJAKOVO CRLNet.108 http://elco.hr9A3XK>APMI06,WIDE2-2,qAR,9A6ICN:!4522.10N/01814.60EIiGate&W2 DJAKOVO CRLNet.108 http://elco.hr
2021-04-14 05:52:539A3XK>APMI06,TCPIP*,qAC,APRSFI-I1:T#051,024,024,000,02996,062,00000000
2021-04-14 05:47:539A3XK>APMI06,TCPIP*,qAC,APRSFI-I1:T#050,036,025,000,02998,062,00000000
2021-04-14 05:42:539A3XK>APMI06,TCPIP*,qAC,APRSFI-I1:T#049,047,026,001,02998,062,00000000
2021-04-14 05:42:189A3XK>BEACON,TCPIP*,qAC,APRSFI-I1:Power 9W Gain 3dB Height 240m Ant omni
2021-04-14 05:42:039A3XK>APMI06,TCPIP*,qAC,APRSFI-I1:>http://crlnet.it - WX3IN1 Plus 2.0 - v1.13 - 12.1C - 12.1V
2021-04-14 05:41:58!4522.10N/01814.60EIiGate&W2 DJAKOVO CRLNet.108 http://elco.hr9A3XK>APMI06,TCPIP*,qAC,APRSFI-I1:!4522.10N/01814.60EIiGate&W2 DJAKOVO CRLNet.108 http://elco.hr
2021-04-14 05:41:549A3XK>APMI06,WIDE1-1,qAR,9A6ICN:T#048,037,025,001,02999,062,00000000
2021-04-14 05:37:539A3XK>APMI06,TCPIP*,qAC,APRSFI-I1:T#047,042,026,001,03000,062,00000000
2021-04-14 05:35:59!4522.10N/01814.60EIiGate&W2 DJAKOVO CRLNet.108 http://elco.hr9A3XK>APMI06,WIDE2-2,qAR,9A6ICN:!4522.10N/01814.60EIiGate&W2 DJAKOVO CRLNet.108 http://elco.hr
2021-04-14 05:32:539A3XK>APMI06,TCPIP*,qAC,APRSFI-I1:T#046,033,025,000,03000,062,00000000
2021-04-14 05:32:199A3XK>BEACON,WIDE1-1,qAR,9A6ICN:Power 9W Gain 3dB Height 240m Ant omni
2021-04-14 05:32:099A3XK>BEACON,WIDE1-1,qAR,9A6ICN:CRLNet.108 - SysOp 9a3XK & 9a7kxp-Internet via DJWIRELES http://djw.hr/
2021-04-14 05:27:539A3XK>APMI06,TCPIP*,qAC,APRSFI-I1:T#045,031,026,000,03001,062,00000000
2021-04-14 05:22:539A3XK>APMI06,TCPIP*,qAC,APRSFI-I1:T#044,041,027,000,03003,062,00000000
2021-04-14 05:17:539A3XK>APMI06,TCPIP*,qAC,APRSFI-I1:T#043,049,026,000,03004,062,00000000
2021-04-14 05:14:59!4522.10N/01814.60EIiGate&W2 DJAKOVO CRLNet.108 http://elco.hr9A3XK>APMI06,WIDE2-2,qAR,9A6ICN:!4522.10N/01814.60EIiGate&W2 DJAKOVO CRLNet.108 http://elco.hr
2021-04-14 05:12:549A3XK>APMI06,WIDE1-1,qAR,9A6ICN:T#041,034,026,000,03006,062,00000000
2021-04-14 05:12:539A3XK>APMI06,TCPIP*,qAC,APRSFI-I1:T#042,034,026,000,03006,062,00000000
2021-04-14 05:12:189A3XK>BEACON,TCPIP*,qAC,APRSFI-I1:Power 9W Gain 3dB Height 240m Ant omni
2021-04-14 05:12:039A3XK>APMI06,TCPIP*,qAC,APRSFI-I1:>http://crlnet.it - WX3IN1 Plus 2.0 - v1.13 - 12.3C - 12.1V
2021-04-14 05:11:58!4522.10N/01814.60EIiGate&W2 DJAKOVO CRLNet.108 http://elco.hr9A3XK>APMI06,TCPIP*,qAC,APRSFI-I1:!4522.10N/01814.60EIiGate&W2 DJAKOVO CRLNet.108 http://elco.hr
2021-04-14 05:07:539A3XK>APMI06,TCPIP*,qAC,APRSFI-I1:T#040,034,026,001,03008,062,00000000
2021-04-14 05:02:539A3XK>APMI06,TCPIP*,qAC,APRSFI-I1:T#039,035,026,000,03007,062,00000000
2021-04-14 04:57:539A3XK>APMI06,TCPIP*,qAC,APRSFI-I1:T#038,045,026,000,03008,062,00000000
2021-04-14 04:53:59!4522.10N/01814.60EIiGate&W2 DJAKOVO CRLNet.108 http://elco.hr9A3XK>APMI06,WIDE2-2,qAR,9A6ICN:!4522.10N/01814.60EIiGate&W2 DJAKOVO CRLNet.108 http://elco.hr
2021-04-14 04:52:539A3XK>APMI06,TCPIP*,qAC,APRSFI-I1:T#037,046,027,000,03010,062,00000000
2021-04-14 04:47:539A3XK>APMI06,TCPIP*,qAC,APRSFI-I1:T#036,044,026,000,03012,062,00000000
2021-04-14 04:43:549A3XK>APMI06,WIDE1-1,qAR,9A6ICN:T#035,043,027,000,03014,062,00000000
2021-04-14 04:42:539A3XK>APMI06,TCPIP*,qAC,APRSFI-I1:T#034,042,026,001,03014,062,00000000
2021-04-14 04:42:189A3XK>BEACON,TCPIP*,qAC,APRSFI-I1:Power 9W Gain 3dB Height 240m Ant omni
2021-04-14 04:42:099A3XK>BEACON,WIDE1-1,qAR,9A6ICN:CRLNet.108 - SysOp 9a3XK & 9a7kxp-Internet via DJWIRELES http://djw.hr/
2021-04-14 04:42:039A3XK>APMI06,TCPIP*,qAC,APRSFI-I1:>http://crlnet.it - WX3IN1 Plus 2.0 - v1.13 - 12.1C - 12.1V
2021-04-14 04:41:58!4522.10N/01814.60EIiGate&W2 DJAKOVO CRLNet.108 http://elco.hr9A3XK>APMI06,TCPIP*,qAC,APRSFI-I1:!4522.10N/01814.60EIiGate&W2 DJAKOVO CRLNet.108 http://elco.hr
2021-04-14 04:37:539A3XK>APMI06,TCPIP*,qAC,APRSFI-I1:T#033,039,026,001,03016,062,00000000
2021-04-14 04:33:02!4522.10N/01814.60EIiGate&W2 DJAKOVO CRLNet.108 http://elco.hr9A3XK>APMI06,E79VTR-11,WIDE2*,qAR,9A1BN-11:!4522.10N/01814.60EIiGate&W2 DJAKOVO CRLNet.108 http://elco.hr
2021-04-14 04:32:539A3XK>APMI06,TCPIP*,qAC,APRSFI-I1:T#032,043,027,000,03015,062,00000000
2021-04-14 04:27:539A3XK>APMI06,TCPIP*,qAC,APRSFI-I1:T#031,036,027,000,03017,062,00000000
2021-04-14 04:22:539A3XK>APMI06,TCPIP*,qAC,APRSFI-I1:T#030,047,027,000,03018,062,00000000
2021-04-14 04:17:539A3XK>APMI06,TCPIP*,qAC,APRSFI-I1:T#029,044,026,000,03020,062,00000000
2021-04-14 04:12:539A3XK>APMI06,TCPIP*,qAC,APRSFI-I1:T#027,034,025,001,03022,062,00000000
2021-04-14 04:12:189A3XK>BEACON,TCPIP*,qAC,APRSFI-I1:Power 9W Gain 3dB Height 240m Ant omni
2021-04-14 04:12:039A3XK>APMI06,TCPIP*,qAC,APRSFI-I1:>http://crlnet.it - WX3IN1 Plus 2.0 - v1.13 - 12.3C - 12.1V
2021-04-14 04:11:58!4522.10N/01814.60EIiGate&W2 DJAKOVO CRLNet.108 http://elco.hr9A3XK>APMI06,TCPIP*,qAC,APRSFI-I1:!4522.10N/01814.60EIiGate&W2 DJAKOVO CRLNet.108 http://elco.hr
2021-04-14 04:07:539A3XK>APMI06,TCPIP*,qAC,APRSFI-I1:T#026,036,027,001,03024,062,00000000
2021-04-14 04:02:539A3XK>APMI06,TCPIP*,qAC,APRSFI-I1:T#025,044,030,001,03023,062,00000000
2021-04-14 03:57:539A3XK>APMI06,TCPIP*,qAC,APRSFI-I1:T#024,042,030,000,03022,062,00000000
2021-04-14 03:52:539A3XK>APMI06,TCPIP*,qAC,APRSFI-I1:T#023,041,031,001,03024,062,00000000
2021-04-14 03:52:199A3XK>BEACON,WIDE1-1,qAR,9A6ICN:Power 9W Gain 3dB Height 240m Ant omni
2021-04-14 03:52:099A3XK>BEACON,WIDE1-1,qAR,9A6ICN:CRLNet.108 - SysOp 9a3XK & 9a7kxp-Internet via DJWIRELES http://djw.hr/
2021-04-14 03:51:00!4522.10N/01814.60EIiGate&W2 DJAKOVO CRLNet.108 http://elco.hr9A3XK>APMI06,9A0XNG-1*,WIDE2-1,qAR,9A1BN-11:!4522.10N/01814.60EIiGate&W2 DJAKOVO CRLNet.108 http://elco.hr
2021-04-14 03:47:539A3XK>APMI06,TCPIP*,qAC,APRSFI-I1:T#022,038,032,000,03023,062,00000000
2021-04-14 03:45:549A3XK>APMI06,WIDE1-1,qAR,9A6ICN:T#021,042,032,000,03024,062,00000000
2021-04-14 03:42:539A3XK>APMI06,TCPIP*,qAC,APRSFI-I1:T#020,046,033,000,03025,062,00000000
2021-04-14 03:42:189A3XK>BEACON,TCPIP*,qAC,APRSFI-I1:Power 9W Gain 3dB Height 240m Ant omni
2021-04-14 03:42:039A3XK>APMI06,TCPIP*,qAC,APRSFI-I1:>http://crlnet.it - WX3IN1 Plus 2.0 - v1.13 - 12.1C - 12.1V
2021-04-14 03:41:58!4522.10N/01814.60EIiGate&W2 DJAKOVO CRLNet.108 http://elco.hr9A3XK>APMI06,TCPIP*,qAC,APRSFI-I1:!4522.10N/01814.60EIiGate&W2 DJAKOVO CRLNet.108 http://elco.hr
2021-04-14 03:37:539A3XK>APMI06,TCPIP*,qAC,APRSFI-I1:T#019,056,033,001,03026,062,00000000
2021-04-14 03:32:539A3XK>APMI06,TCPIP*,qAC,APRSFI-I1:T#018,038,032,000,03026,062,00000000
2021-04-14 03:29:59!4522.10N/01814.60EIiGate&W2 DJAKOVO CRLNet.108 http://elco.hr9A3XK>APMI06,WIDE2-2,qAR,9A6ICN:!4522.10N/01814.60EIiGate&W2 DJAKOVO CRLNet.108 http://elco.hr
2021-04-14 03:27:539A3XK>APMI06,TCPIP*,qAC,APRSFI-I1:T#017,023,032,001,03029,062,00000000
2021-04-14 03:22:539A3XK>APMI06,TCPIP*,qAC,APRSFI-I1:T#016,036,033,001,03029,062,00000000
2021-04-14 03:17:539A3XK>APMI06,TCPIP*,qAC,APRSFI-I1:T#015,057,034,000,03028,062,00000000
2021-04-14 03:16:549A3XK>APMI06,WIDE1-1,qAR,9A6ICN:T#014,059,034,000,03028,062,00000000
2021-04-14 03:12:539A3XK>APMI06,TCPIP*,qAC,APRSFI-I1:T#013,071,033,002,03030,062,00000000
2021-04-14 03:12:189A3XK>BEACON,TCPIP*,qAC,APRSFI-I1:Power 9W Gain 3dB Height 240m Ant omni
2021-04-14 03:12:039A3XK>APMI06,TCPIP*,qAC,APRSFI-I1:>http://crlnet.it - WX3IN1 Plus 2.0 - v1.13 - 12.3C - 12.1V
2021-04-14 03:11:58!4522.10N/01814.60EIiGate&W2 DJAKOVO CRLNet.108 http://elco.hr9A3XK>APMI06,TCPIP*,qAC,APRSFI-I1:!4522.10N/01814.60EIiGate&W2 DJAKOVO CRLNet.108 http://elco.hr
2021-04-14 03:08:59!4522.10N/01814.60EIiGate&W2 DJAKOVO CRLNet.108 http://elco.hr9A3XK>APMI06,WIDE2-2,qAR,9A6ICN:!4522.10N/01814.60EIiGate&W2 DJAKOVO CRLNet.108 http://elco.hr
2021-04-14 03:07:539A3XK>APMI06,TCPIP*,qAC,APRSFI-I1:T#012,061,031,002,03033,062,00000000
2021-04-14 03:02:539A3XK>APMI06,TCPIP*,qAC,APRSFI-I1:T#011,050,030,001,03031,062,00000000
2021-04-14 03:02:199A3XK>BEACON,WIDE1-1,qAR,9A6ICN:Power 9W Gain 3dB Height 240m Ant omni
2021-04-14 03:02:099A3XK>BEACON,WIDE1-1,qAR,9A6ICN:CRLNet.108 - SysOp 9a3XK & 9a7kxp-Internet via DJWIRELES http://djw.hr/
2021-04-14 02:57:539A3XK>APMI06,TCPIP*,qAC,APRSFI-I1:T#010,057,029,000,03033,062,00000000
2021-04-14 02:52:539A3XK>APMI06,TCPIP*,qAC,APRSFI-I1:T#009,055,029,000,03033,062,00000000
2021-04-14 02:47:59!4522.10N/01814.60EIiGate&W2 DJAKOVO CRLNet.108 http://elco.hr9A3XK>APMI06,WIDE2-2,qAR,9A6ICN:!4522.10N/01814.60EIiGate&W2 DJAKOVO CRLNet.108 http://elco.hr
2021-04-14 02:47:559A3XK>APMI06,9A0XNG-1,WIDE1*,qAR,9A1W-1:T#007,048,028,000,03036,062,00000000
2021-04-14 02:47:539A3XK>APMI06,TCPIP*,qAC,APRSFI-I1:T#008,048,028,000,03036,062,00000000
2021-04-14 02:42:539A3XK>APMI06,TCPIP*,qAC,APRSFI-I1:T#006,043,027,001,03038,062,00000000
2021-04-14 02:42:199A3XK>BEACON,TCPIP*,qAC,APRSFI-I1:Power 9W Gain 3dB Height 240m Ant omni
2021-04-14 02:42:039A3XK>APMI06,TCPIP*,qAC,APRSFI-I1:>http://crlnet.it - WX3IN1 Plus 2.0 - v1.13 - 11.9C - 12.1V
2021-04-14 02:41:58!4522.10N/01814.60EIiGate&W2 DJAKOVO CRLNet.108 http://elco.hr9A3XK>APMI06,TCPIP*,qAC,APRSFI-I1:!4522.10N/01814.60EIiGate&W2 DJAKOVO CRLNet.108 http://elco.hr
2021-04-14 02:37:539A3XK>APMI06,TCPIP*,qAC,APRSFI-I1:T#005,044,026,001,03040,062,00000000
2021-04-14 02:32:539A3XK>APMI06,TCPIP*,qAC,APRSFI-I1:T#004,041,025,000,03039,062,00000000
2021-04-14 02:27:539A3XK>APMI06,TCPIP*,qAC,APRSFI-I1:T#003,044,025,000,03041,062,00000000
2021-04-14 02:26:59!4522.10N/01814.60EIiGate&W2 DJAKOVO CRLNet.108 http://elco.hr9A3XK>APMI06,WIDE2-2,qAR,9A6ICN:!4522.10N/01814.60EIiGate&W2 DJAKOVO CRLNet.108 http://elco.hr
2021-04-14 02:22:539A3XK>APMI06,TCPIP*,qAC,APRSFI-I1:T#002,042,026,000,03043,062,00000000
2021-04-14 02:18:549A3XK>APMI06,WIDE1-1,qAR,9A6ICN:T#001,032,026,000,03045,062,00000000
2021-04-14 02:17:539A3XK>APMI06,TCPIP*,qAC,APRSFI-I1:T#000,030,025,000,03045,062,00000000
2021-04-14 02:12:539A3XK>APMI06,TCPIP*,qAC,APRSFI-I1:T#255,047,026,000,03046,062,00000000
2021-04-14 02:12:189A3XK>BEACON,TCPIP*,qAC,APRSFI-I1:Power 9W Gain 3dB Height 240m Ant omni
2021-04-14 02:12:099A3XK>BEACON,WIDE1-1,qAR,9A6ICN:CRLNet.108 - SysOp 9a3XK & 9a7kxp-Internet via DJWIRELES http://djw.hr/
2021-04-14 02:12:039A3XK>APMI06,TCPIP*,qAC,APRSFI-I1:>http://crlnet.it - WX3IN1 Plus 2.0 - v1.13 - 12.3C - 12.1V
2021-04-14 02:11:58!4522.10N/01814.60EIiGate&W2 DJAKOVO CRLNet.108 http://elco.hr9A3XK>APMI06,TCPIP*,qAC,APRSFI-I1:!4522.10N/01814.60EIiGate&W2 DJAKOVO CRLNet.108 http://elco.hr
2021-04-14 02:07:539A3XK>APMI06,TCPIP*,qAC,APRSFI-I1:T#254,038,025,001,03048,062,00000000
2021-04-14 02:05:59!4522.10N/01814.60EIiGate&W2 DJAKOVO CRLNet.108 http://elco.hr9A3XK>APMI06,WIDE2-2,qAR,9A6ICN:!4522.10N/01814.60EIiGate&W2 DJAKOVO CRLNet.108 http://elco.hr
2021-04-14 02:02:539A3XK>APMI06,TCPIP*,qAC,APRSFI-I1:T#253,040,026,000,03048,062,00000000
2021-04-14 01:57:549A3XK>APMI06,TCPIP*,qAC,APRSFI-I1:T#252,051,027,000,03049,062,00000000
2021-04-14 01:52:539A3XK>APMI06,TCPIP*,qAC,APRSFI-I1:T#251,039,026,000,03052,062,00000000
2021-04-14 01:49:549A3XK>APMI06,WIDE1-1,qAR,9A6ICN:T#250,039,028,000,03053,062,00000000
2021-04-14 01:47:539A3XK>APMI06,TCPIP*,qAC,APRSFI-I1:T#249,028,027,000,03053,062,00000000
2021-04-14 01:44:59!4522.10N/01814.60EIiGate&W2 DJAKOVO CRLNet.108 http://elco.hr9A3XK>APMI06,WIDE2-2,qAR,9A6ICN:!4522.10N/01814.60EIiGate&W2 DJAKOVO CRLNet.108 http://elco.hr
2021-04-14 01:42:539A3XK>APMI06,TCPIP*,qAC,APRSFI-I1:T#248,024,028,000,03055,062,00000000
2021-04-14 01:42:199A3XK>BEACON,TCPIP*,qAC,APRSFI-I1:Power 9W Gain 3dB Height 240m Ant omni
2021-04-14 01:42:049A3XK>APMI06,TCPIP*,qAC,APRSFI-I1:>http://crlnet.it - WX3IN1 Plus 2.0 - v1.13 - 12.5C - 12.1V
2021-04-14 01:41:59!4522.10N/01814.60EIiGate&W2 DJAKOVO CRLNet.108 http://elco.hr9A3XK>APMI06,TCPIP*,qAC,APRSFI-I1:!4522.10N/01814.60EIiGate&W2 DJAKOVO CRLNet.108 http://elco.hr
2021-04-14 01:37:539A3XK>APMI06,TCPIP*,qAC,APRSFI-I1:T#247,042,031,001,03056,062,00000000
2021-04-14 01:32:549A3XK>APMI06,TCPIP*,qAC,APRSFI-I1:T#246,047,032,000,03055,062,00000000
2021-04-14 01:27:549A3XK>APMI06,TCPIP*,qAC,APRSFI-I1:T#245,040,031,000,03057,062,00000000
2021-04-14 01:23:59!4522.10N/01814.60EIiGate&W2 DJAKOVO CRLNet.108 http://elco.hr9A3XK>APMI06,WIDE2-2,qAR,9A6ICN:!4522.10N/01814.60EIiGate&W2 DJAKOVO CRLNet.108 http://elco.hr
2021-04-14 01:22:549A3XK>APMI06,TCPIP*,qAC,APRSFI-I1:T#244,043,033,001,03059,062,00000000
2021-04-14 01:22:199A3XK>BEACON,WIDE1-1,qAR,9A6ICN:Power 9W Gain 3dB Height 240m Ant omni
2021-04-14 01:22:099A3XK>BEACON,WIDE1-1,qAR,9A6ICN:CRLNet.108 - SysOp 9a3XK & 9a7kxp-Internet via DJWIRELES http://djw.hr/
2021-04-14 01:20:549A3XK>APMI06,WIDE1-1,qAR,9A6ICN:T#243,034,032,001,03060,062,00000000
2021-04-14 01:17:549A3XK>APMI06,TCPIP*,qAC,APRSFI-I1:T#242,032,034,001,03061,062,00000000
2021-04-14 01:12:549A3XK>APMI06,TCPIP*,qAC,APRSFI-I1:T#241,052,035,001,03060,062,00000000
2021-04-14 01:12:199A3XK>BEACON,TCPIP*,qAC,APRSFI-I1:Power 9W Gain 3dB Height 240m Ant omni
2021-04-14 01:12:049A3XK>APMI06,TCPIP*,qAC,APRSFI-I1:>http://crlnet.it - WX3IN1 Plus 2.0 - v1.13 - 12.4C - 12.1V
2021-04-14 01:11:59!4522.10N/01814.60EIiGate&W2 DJAKOVO CRLNet.108 http://elco.hr9A3XK>APMI06,TCPIP*,qAC,APRSFI-I1:!4522.10N/01814.60EIiGate&W2 DJAKOVO CRLNet.108 http://elco.hr
2021-04-14 01:07:549A3XK>APMI06,TCPIP*,qAC,APRSFI-I1:T#240,056,037,001,03061,062,00000000
2021-04-14 01:02:549A3XK>APMI06,TCPIP*,qAC,APRSFI-I1:T#239,039,037,001,03062,062,00000000
2021-04-14 00:57:539A3XK>APMI06,TCPIP*,qAC,APRSFI-I1:T#238,047,037,001,03064,062,00000000
2021-04-14 00:52:549A3XK>APMI06,TCPIP*,qAC,APRSFI-I1:T#237,051,038,002,03063,062,00000000
2021-04-14 00:51:549A3XK>APMI06,WIDE1-1,qAR,9A6ICN:T#236,060,038,002,03063,062,00000000
2021-04-14 00:47:549A3XK>APMI06,TCPIP*,qAC,APRSFI-I1:T#235,061,039,001,03063,062,00000000
2021-04-14 00:42:549A3XK>APMI06,TCPIP*,qAC,APRSFI-I1:T#234,059,038,002,03062,062,00000000
2021-04-14 00:42:469A3XK>APMI06,WIDE1-1,qAR,9A6ICN::9A3XK :BITS.11111111,DJAKOVO 5' Stats.
2021-04-14 00:42:459A3XK>APMI06,WIDE1-1,qAR,9A6ICN::9A3XK :EQNS.0,1,0,0,10,0,0,1,0,0,0.001,0,0,1,0
2021-04-14 00:42:459A3XK>APMI06,WIDE1-1,qAR,9A6ICN::9A3XK :UNIT.Pkt,Pkt,Pkt,Pcnt,Pcnt,On,On,On,On,Hi,Hi,Hi,Hi
2021-04-14 00:42:449A3XK>APMI06,WIDE1-1,qAR,9A6ICN::9A3XK :PARM.Rx10m,Rx1h,Dg10m,DgR,Eff,O1,O2,O3,O4,I1,I2,I3,I4
2021-04-14 00:42:199A3XK>BEACON,TCPIP*,qAC,APRSFI-I1:Power 9W Gain 3dB Height 240m Ant omni
2021-04-14 00:42:049A3XK>APMI06,TCPIP*,qAC,APRSFI-I1:>http://crlnet.it - WX3IN1 Plus 2.0 - v1.13 - 11.8C - 12.1V
2021-04-14 00:41:59!4522.10N/01814.60EIiGate&W2 DJAKOVO CRLNet.108 http://elco.hr9A3XK>APMI06,TCPIP*,qAC,APRSFI-I1:!4522.10N/01814.60EIiGate&W2 DJAKOVO CRLNet.108 http://elco.hr
2021-04-14 00:37:549A3XK>APMI06,TCPIP*,qAC,APRSFI-I1:T#233,054,039,002,03066,062,00000000
2021-04-14 00:32:549A3XK>APMI06,TCPIP*,qAC,APRSFI-I1:T#232,050,039,001,03063,062,00000000
2021-04-14 00:32:199A3XK>BEACON,WIDE1-1,qAR,9A6ICN:Power 9W Gain 3dB Height 240m Ant omni
2021-04-14 00:32:109A3XK>BEACON,WIDE1-1,qAR,9A6ICN:CRLNet.108 - SysOp 9a3XK & 9a7kxp-Internet via DJWIRELES http://djw.hr/
2021-04-14 00:27:549A3XK>APMI06,TCPIP*,qAC,APRSFI-I1:T#231,061,039,001,03065,062,00000000
2021-04-14 00:22:549A3XK>APMI06,WIDE1-1,qAR,9A6ICN:T#229,063,039,003,03065,062,00000000
2021-04-14 00:22:549A3XK>APMI06,TCPIP*,qAC,APRSFI-I1:T#230,063,039,003,03065,062,00000000
2021-04-14 00:17:549A3XK>APMI06,TCPIP*,qAC,APRSFI-I1:T#228,060,038,001,03065,062,00000000
2021-04-14 00:12:549A3XK>APMI06,TCPIP*,qAC,APRSFI-I1:T#227,074,038,002,03063,062,00000000
2021-04-14 00:12:199A3XK>BEACON,TCPIP*,qAC,APRSFI-I1:Power 9W Gain 3dB Height 240m Ant omni
2021-04-14 00:12:049A3XK>APMI06,TCPIP*,qAC,APRSFI-I1:>http://crlnet.it - WX3IN1 Plus 2.0 - v1.13 - 12.6C - 12.1V
2021-04-14 00:11:59!4522.10N/01814.60EIiGate&W2 DJAKOVO CRLNet.108 http://elco.hr9A3XK>APMI06,TCPIP*,qAC,APRSFI-I1:!4522.10N/01814.60EIiGate&W2 DJAKOVO CRLNet.108 http://elco.hr
2021-04-14 00:07:549A3XK>APMI06,TCPIP*,qAC,APRSFI-I1:T#226,057,036,002,03065,062,00000000
2021-04-14 00:02:549A3XK>APMI06,TCPIP*,qAC,APRSFI-I1:T#225,050,035,001,03061,062,00000000